Weather History for Ainsworth, NE

Change the Weather History Date:

Friday, September 13, 2013

  Actual Average Record
Temperature  
Mean Temperature 62 °F -  
Max Temperature 78 °F 76 °F 93 °F (2000)
Min Temperature 47 °F 51 °F 39 °F (1999)
Degree Days  
Heating Degree Days 3    
Growing Degree Days 12 (Base 50)    
Moisture  
Dew Point 46 °F    
Average Humidity 58    
Maximum Humidity 90    
Minimum Humidity 29    
Precipitation  
Precipitation 0.00 in - - ()
Sea Level Pressure  
Sea Level Pressure 30.15 in    
Wind  
Wind Speed 7 mph (SSE)    
Max Wind Speed 16 mph    
Max Gust Speed 21 mph    
Visibility 10 miles    
Events      
Averages and records for this station are not official NWS values.
T = Trace of Precipitation, MM = Missing Value Source: NWS Daily Summary

Daily Weather History Graph

Daily Weather History Graph

Search for Another Location

Airport:

Trip Planner

Search our weather history database for the weather conditions in past years. The results will help you decide how hot, cold, wet, or windy it might be!

Date:

Astronomy

Sep. 13, 2013 Rise Set
Actual Time 7:17 AM CDT 7:52 PM CDT
Civil Twilight 6:49 AM CDT 8:21 PM CDT
Nautical Twilight 6:16 AM CDT 8:54 PM CDT
Astronomical Twilight 5:41 AM CDT 9:29 PM CDT
Moon 3:49 PM CDT (9/13) 12:43 AM CDT (9/13)
Length of Visible Light 13h 31m
Length of Day
12h 34m
First Quarter, 61% of the Moon is Illuminated
Sep 13
First Quarter
Sep 19
Full
Sep 26
Last Quarter
Oct 4
New
Oct 11
First Quarter

Hourly Weather History & Observations

Time (CDT) Temp. Dew Point Humidity Pressure Visibility Wind Dir Wind Speed Gust Speed Precip Events Conditions
12:15 AM 54.9 °F 47.5 °F 76% 30.26 in 5.0 mi SE 3.5 mph - N/A   Haze
12:35 AM 54.1 °F 46.0 °F 74% 30.26 in 10.0 mi South 4.6 mph - N/A   Clear
12:55 AM 53.2 °F 46.4 °F 78% 30.25 in 10.0 mi Calm Calm - N/A   Clear
1:15 AM 54.5 °F 45.9 °F 73% 30.25 in 10.0 mi South 3.5 mph - N/A   Clear
1:35 AM 52.5 °F 45.9 °F 78% 30.25 in 10.0 mi SSE 3.5 mph - N/A   Clear
1:55 AM 52.3 °F 45.3 °F 77% 30.25 in 10.0 mi South 8.1 mph - N/A   Clear
2:15 AM 50.5 °F 45.3 °F 82% 30.25 in 10.0 mi South 5.8 mph - N/A   Clear
2:35 AM 53.4 °F 45.9 °F 76% 30.25 in 10.0 mi SSE 4.6 mph - N/A   Clear
2:55 AM 52.9 °F 46.0 °F 78% 30.24 in 10.0 mi SSE 3.5 mph - N/A   Clear
3:15 AM 52.0 °F 45.7 °F 79% 30.24 in 10.0 mi South 4.6 mph - N/A   Clear
3:35 AM 50.9 °F 45.9 °F 83% 30.24 in 10.0 mi South 4.6 mph - N/A   Clear
3:55 AM 49.6 °F 45.7 °F 86% 30.24 in 10.0 mi South 9.2 mph - N/A   Clear
4:15 AM 49.5 °F 45.1 °F 85% 30.23 in 10.0 mi South 4.6 mph - N/A   Clear
4:35 AM 49.8 °F 45.9 °F 86% 30.23 in 10.0 mi South 4.6 mph - N/A   Clear
4:55 AM 49.6 °F 45.7 °F 86% 30.22 in 10.0 mi SSE 3.5 mph - N/A   Clear
5:15 AM 49.1 °F 45.0 °F 86% 30.22 in 10.0 mi South 4.6 mph - N/A   Clear
5:35 AM 48.9 °F 45.7 °F 89% 30.23 in 10.0 mi South 3.5 mph - N/A   Clear
5:55 AM 49.6 °F 46.0 °F 87% 30.22 in 10.0 mi Calm Calm - N/A   Clear
6:15 AM 47.7 °F 44.6 °F 89% 30.22 in 10.0 mi South 4.6 mph - N/A   Clear
6:35 AM 48.2 °F 45.5 °F 90% 30.22 in 10.0 mi South 4.6 mph - N/A   Clear
6:55 AM 48.4 °F 45.3 °F 89% 30.22 in 10.0 mi South 4.6 mph - N/A   Clear
7:15 AM 49.5 °F 46.2 °F 89% 30.22 in 10.0 mi South 4.6 mph - N/A   Clear
7:35 AM 48.9 °F 46.0 °F 90% 30.22 in 10.0 mi South 3.5 mph - N/A   Clear
7:55 AM 50.7 °F 48.0 °F 90% 30.22 in 10.0 mi South 4.6 mph - N/A   Clear
8:15 AM 52.3 °F 48.9 °F 88% 30.22 in 10.0 mi South 4.6 mph - N/A   Clear
8:55 AM 58.3 °F 50.9 °F 76% 30.22 in 7.0 mi South 4.6 mph - N/A   Clear
9:15 AM 61.5 °F 50.7 °F 68% 30.22 in 7.0 mi South 6.9 mph - N/A   Clear
9:35 AM 64.2 °F 48.6 °F 57% 30.22 in 10.0 mi South 11.5 mph - N/A   Clear
9:55 AM 67.1 °F 47.1 °F 49% 30.22 in 10.0 mi South 11.5 mph - N/A   Clear
10:15 AM 68.9 °F 46.2 °F 44% 30.22 in 10.0 mi SSE 13.8 mph - N/A   Clear
10:35 AM 69.6 °F 45.1 °F 41% 30.22 in 10.0 mi South 13.8 mph - N/A   Clear
10:55 AM 70.7 °F 45.0 °F 40% 30.22 in 10.0 mi SSE 16.1 mph 20.7 mph N/A   Clear
11:15 AM 72.0 °F 45.3 °F 38% 30.21 in 10.0 mi SSE 15.0 mph - N/A   Clear
11:35 AM 73.2 °F 44.4 °F 36% 30.21 in 10.0 mi SSE 13.8 mph - N/A   Clear
11:55 AM 73.2 °F 44.6 °F 36% 30.19 in 10.0 mi South 15.0 mph 18.4 mph N/A   Clear
12:15 PM 72.7 °F 45.0 °F 37% 30.18 in 10.0 mi South 12.7 mph - N/A   Clear
12:35 PM 74.5 °F 44.6 °F 34% 30.17 in 10.0 mi South 13.8 mph - N/A   Clear
12:55 PM 74.7 °F 43.9 °F 33% 30.16 in 10.0 mi South 11.5 mph 17.3 mph N/A   Clear
1:15 PM 75.0 °F 43.2 °F 32% 30.15 in 10.0 mi South 11.5 mph 17.3 mph N/A   Clear
1:35 PM 75.9 °F 42.4 °F 30% 30.15 in 10.0 mi SSE 16.1 mph 19.6 mph N/A   Clear
1:55 PM 77.0 °F 42.8 °F 29% 30.14 in 10.0 mi SSE 13.8 mph 19.6 mph N/A   Clear
2:15 PM 77.4 °F 42.4 °F 29% 30.13 in 7.0 mi SSE 13.8 mph 17.3 mph N/A   Scattered Clouds
2:35 PM 76.1 °F 42.3 °F 30% 30.12 in 10.0 mi South 12.7 mph - N/A   Scattered Clouds
2:55 PM 76.1 °F 44.1 °F 32% 30.11 in 10.0 mi SSE 16.1 mph - N/A   Scattered Clouds
3:15 PM 77.5 °F 43.9 °F 30% 30.11 in 7.0 mi South 16.1 mph - N/A   Overcast
3:35 PM 75.4 °F 43.5 °F 32% 30.10 in 10.0 mi South 12.7 mph - N/A   Mostly Cloudy
3:55 PM 74.7 °F 44.8 °F 34% 30.10 in 10.0 mi South 11.5 mph - N/A   Overcast
4:15 PM 74.7 °F 43.9 °F 33% 30.10 in 10.0 mi South 16.1 mph - N/A   Scattered Clouds
4:35 PM 73.6 °F 44.6 °F 35% 30.09 in 10.0 mi South 15.0 mph - N/A   Mostly Cloudy
4:55 PM 73.8 °F 44.8 °F 35% 30.08 in 10.0 mi SSE 13.8 mph - N/A   Overcast
5:15 PM 73.9 °F 45.7 °F 36% 30.08 in 10.0 mi SSE 12.7 mph 19.6 mph N/A   Overcast
5:35 PM 73.8 °F 44.6 °F 35% 30.08 in 10.0 mi SSE 15.0 mph - N/A   Mostly Cloudy
5:55 PM 72.7 °F 47.7 °F 41% 30.07 in 10.0 mi SSE 11.5 mph 16.1 mph N/A   Mostly Cloudy
6:15 PM 73.8 °F 47.5 °F 39% 30.07 in 10.0 mi SSE 12.7 mph 20.7 mph N/A   Overcast
6:35 PM 72.1 °F 47.7 °F 42% 30.06 in 10.0 mi SSE 13.8 mph - N/A   Mostly Cloudy
6:55 PM 70.9 °F 48.4 °F 45% 30.05 in 10.0 mi SSE 9.2 mph - N/A   Clear
7:15 PM 69.8 °F 49.1 °F 48% 30.04 in 10.0 mi SSE 11.5 mph - N/A   Clear
7:35 PM 68.5 °F 48.6 °F 49% 30.03 in 10.0 mi SSE 11.5 mph - N/A   Clear
7:55 PM 67.6 °F 48.6 °F 50% 30.03 in 10.0 mi SE 9.2 mph - N/A   Clear
8:15 PM 66.4 °F 48.2 °F 52% 30.03 in 10.0 mi SSE 8.1 mph - N/A   Clear
8:35 PM 66.0 °F 48.2 °F 53% 30.03 in 10.0 mi SSE 9.2 mph - N/A   Clear
8:55 PM 65.3 °F 49.1 °F 56% 30.04 in 10.0 mi SSE 8.1 mph - N/A   Clear
9:15 PM 66.0 °F 49.1 °F 54% 30.04 in 10.0 mi SSE 10.4 mph - N/A   Clear
9:35 PM 66.4 °F 48.7 °F 53% 30.04 in 10.0 mi SSE 9.2 mph - N/A   Clear
9:55 PM 65.3 °F 49.3 °F 56% 30.04 in 10.0 mi South 10.4 mph - N/A   Scattered Clouds
10:15 PM 64.4 °F 49.3 °F 58% 30.03 in 10.0 mi South 10.4 mph - N/A   Scattered Clouds
10:35 PM 63.7 °F 49.5 °F 60% 30.03 in 10.0 mi South 10.4 mph - N/A   Clear
10:55 PM 63.3 °F 49.3 °F 60% 30.04 in 10.0 mi South 10.4 mph - N/A   Scattered Clouds
11:15 PM 63.7 °F 49.1 °F 59% 30.03 in 10.0 mi South 9.2 mph - N/A   Scattered Clouds
11:35 PM 63.5 °F 48.7 °F 59% 30.03 in 10.0 mi South 10.4 mph - N/A   Clear
11:55 PM 63.9 °F 48.7 °F 58% 30.03 in 10.0 mi South 15.0 mph - N/A   Clear